#timestamp,LO_Frequency,Hit,StdDev 
1587862815.1,286046993.2,N
1587862835.9,286046990.9,N
1587862855.7,286046989.2,Y
1587862875.5,286046992.5,P
1587862895.4,286046992.6,P
1587862915.2,286046992.0,P
1587862935.1,286046994.7,N
1587862936.0,286046994.7,Y
1587862955.8,286046998.1,P
1587862975.6,286046998.6,N
1587862995.5,286046998.4,N
1587863015.3,286046998.4,N
1587863035.2,286046999.3,N
1587863055.9,286047002.8,N
1587863075.7,286047001.2,N
1587863095.6,286046998.3,N
1587863115.4,286046999.0,N
1587863135.3,286047000.9,N
1587863155.1,286046996.6,N
1587863156.0,286046996.6,N
1587863175.8,286046998.2,N
1587863195.7,286046998.1,N
1587863215.5,286047002.8,N
1587863235.4,286047000.3,N
1587863255.2,286046998.6,N
1587863275.0,286046998.9,N
1587863275.9,286046998.9,N
1587863295.8,286047001.1,N
1587863315.6,286046996.5,N
1587863335.5,286046998.6,N
1587863355.3,286047000.2,N
1587863375.1,286047000.7,N
1587863395.9,286046998.2,N
1587863415.7,286047000.4,N
1587863435.6,286047000.1,N
1587863455.4,286047000.1,N
1587863475.2,286046998.1,N
1587863495.1,286046998.7,N
1587863496.0,286046998.7,N
1587863515.8,286046998.2,N
1587863535.6,286046998.9,N
1587863555.5,286046996.6,N
1587863575.3,286046995.4,N
1587863595.2,286046994.9,N
1587863615.9,286046997.4,N
1587863635.7,286046996.8,N
1587863655.6,286046999.3,N
1587863675.4,286046999.4,N
1587863695.3,286046997.0,N
1587863715.1,286046997.6,N
1587863716.0,286046997.6,N
1587863735.8,286046995.3,N
1587863755.7,286046993.7,Y
1587863775.5,286046995.7,P
1587863795.3,286046995.0,P
1587863815.2,286046997.4,N
1587863835.0,286047002.6,N
1587863835.9,286047002.6,N
1587863855.8,286047002.4,N
1587863875.6,286047002.8,N
1587863895.4,286046998.2,N
1587863915.3,286046996.9,N
1587863935.1,286046999.3,N
1587863955.9,286046996.7,N
1587863975.7,286047000.7,N
1587863995.5,286046998.1,N
1587864015.4,286047003.9,N
1587864035.2,286047002.4,N
1587864055.0,286046999.8,N
1587864056.0,286046999.8,N
1587864075.8,286047002.4,N
1587864095.6,286047001.3,N
1587864115.5,286046998.3,N
1587864135.3,286047000.1,N
1587864155.1,286047000.8,N
1587864175.9,286047000.7,N
1587864195.7,286047001.0,N
1587864215.6,286047002.2,N
1587864235.4,286047003.0,N
1587864255.2,286047002.9,N
1587864275.1,286047007.2,N
1587864276.0,286047007.2,N
1587864295.8,286047004.8,N
1587864315.6,286047006.5,N
1587864335.5,286047005.8,N
1587864355.3,286047005.3,N
1587864375.2,286047005.5,N
1587864395.9,286047006.8,N
1587864415.7,286047006.7,N
1587864435.6,286047006.2,N
1587864455.4,286047006.5,N
1587864475.3,286047007.1,N
1587864495.1,286047004.8,N
1587864496.0,286047004.8,N
1587864515.8,286047004.5,N
1587864535.7,286047004.6,N
1587864555.5,286047007.6,N
1587864575.3,286047002.9,N
1587864595.2,286047004.8,N
1587864615.0,286047007.6,N
1587864615.9,286047007.6,Y
1587864635.8,286047001.7,P
1587864655.6,286047002.4,N
1587864675.5,286047000.2,N
1587864695.3,286047000.6,N
1587864715.1,286047002.2,N
1587864735.9,286047002.2,N
1587864755.7,286047004.0,Y
1587864775.6,286047001.3,P
1587864795.4,286047002.1,P
1587864815.2,286047001.5,P
1587864835.1,286047000.2,N
1587864836.0,286047000.2,N
1587864855.8,286047002.8,Y
1587864875.7,286047001.8,P
1587864895.5,286047004.4,P
1587864915.3,286047003.2,N
1587864935.2,286047003.4,N
1587864955.0,286047002.4,N
1587864955.9,286047002.4,N
1587864975.7,286046999.7,N
1587864995.6,286046999.9,N
1587865015.4,286047002.5,N
1587865035.3,286047001.8,N
1587865055.1,286047006.0,Y
1587865075.8,286046998.9,P
1587865095.7,286047000.9,N
1587865115.5,286047000.5,N
1587865135.4,286047004.3,Y
1587865155.2,286047000.0,P
1587865175.0,286047001.5,P
1587865175.9,286047001.5,N
1587865195.8,286047002.0,Y
1587865215.6,286047000.3,P
1587865235.5,286047000.5,N
1587865255.3,286047002.4,P
1587865275.1,286047000.4,N
1587865295.9,286046997.0,Y
1587865315.7,286046996.6,P
1587865335.5,286047001.1,N
1587865355.4,286047001.1,N
1587865375.2,286046997.0,N
1587865395.1,286047000.0,N
1587865396.0,286047000.0,N
1587865415.8,286047000.6,N
1587865435.7,286046998.6,N
1587865455.5,286046999.0,N
1587865475.3,286046996.8,N
1587865495.2,286046994.9,Y
1587865515.0,286046996.1,P
1587865515.9,286046996.1,N
1587865535.8,286046996.2,N
1587865555.6,286046993.7,Y
1587865575.4,286047000.6,P
1587865595.3,286047001.2,N
1587865615.1,286046999.3,N
1587865635.9,286046999.9,N
1587865655.7,286047002.7,N
1587865675.5,286047000.5,N
1587865695.4,286047000.7,N
1587865715.2,286047002.0,N
1587865735.0,286047003.2,N
1587865735.9,286047003.2,N
1587865755.8,286047003.7,N
1587865775.6,286047002.0,N
1587865795.5,286047000.2,N
1587865815.3,286047001.6,N
1587865835.1,286047001.7,N
1587865855.9,286047004.4,N
1587865875.7,286047005.7,Y
1587865895.6,286047001.9,P
1587865915.5,286047001.2,P
1587865935.3,286047000.6,N
1587865955.2,286047000.5,N
1587865975.9,286046998.5,N
1587865995.7,286047001.1,N
1587866015.6,286046999.3,N
1587866035.4,286046999.4,N
1587866055.2,286046998.9,N
1587866075.1,286047001.1,N
1587866076.0,286047001.1,N
1587866095.8,286046998.6,N
1587866115.7,286046998.1,N
1587866135.5,286046999.8,N
1587866155.3,286046999.8,N
1587866175.2,286047002.4,N
1587866195.0,286047000.1,N
1587866195.9,286047000.1,N
1587866215.8,286047000.8,N
1587866235.6,286047000.9,N
1587866255.4,286046998.4,N
1587866275.3,286046998.8,N
1587866295.1,286046998.2,N
1587866315.9,286047000.0,N
1587866335.7,286047000.8,N
1587866355.5,286046999.0,N
1587866375.4,286046997.0,N
1587866395.2,286046999.6,N
